Regional Weather Roundup
Issued by NWS Lake Charles, LA

Home | Current Version | Previous Version | Text Only | Print | Product List | Glossary On
Versions: 1 2 3 4 5 6 7 8 9 10 11 12 13 14 15 16 17 18 19 20 21 22 23 24 25 26 27
000
ASUS44 KLCH 282010
RWRLCH
REGIONAL WEATHER ROUNDUP
NATIONAL WEATHER SERVICE LAKE CHARLES LA
300 PM CDT WED SEP 28 2016

Note: "fair" indicates few or no clouds below 12,000 feet with no
significant weather and/or obstructions to visibility.


ACROSS SOUTHEAST TEXAS

CITY           SKY/WX    TMP DP  RH WIND       PRES   REMARKS
BEAUMONT       SUNNY     88  66  48 W5        30.00F
BEAUMONT CITY  FAIR      87  65  47 NW6       30.01F
ORANGE         CLEAR     85  60  42 CALM      30.02F
JASPER         SUNNY     85  64  48 W7        30.03F
$$

ACROSS CENTRAL LOUISIANA

CITY           SKY/WX    TMP DP  RH WIND       PRES   REMARKS
LEESVILLE      MOSUNNY   84  65  52 SW6       29.99F
FULLERTON      FAIR      86  64  47 CALM      29.97F
ALEXANDRIA INT MOSUNNY   85  61  44 NW7       29.97F HAZE
ESLER FIELD    SUNNY     85  64  49 VRB7      29.99F
DERIDDER       FAIR      86  63  45 NW7G22    30.02F
OAKDALE        CLEAR     86  65  49 NW8       29.99F
OPELOUSAS      FAIR      86  66  50 SW8       29.99F
$$

ACROSS SOUTHWEST AND SOUTH CENTRAL LOUISIANA

CITY           SKY/WX    TMP DP  RH WIND       PRES   REMARKS
SULPHUR        CLEAR     86  65  48 SW5       30.00F
LAKE CHARLES   SUNNY     85  66  53 SW3       29.99F
CHENNAULT INT  NOT AVBL
CAMERON PHI    CLEAR     84  66  54 CALM      29.99F
DEQUINCY       FAIR      83  65  54 W5        30.01S
JENNINGS       FAIR      84  66  54 NW7       29.99F
LAFAYETTE      SUNNY     87  67  51 W6        29.99F
NEW IBERIA     MOSUNNY   88  65  46 NW8       29.99F
ABBEVILLE      FAIR      86  68  54 W9        29.99F
PATTERSON      MOSUNNY   86  69  56 N8        29.99F
SALT POINT     NOT AVBL
$$

SELECTED SITES ACROSS THE REGION

CITY           SKY/WX    TMP DP  RH WIND       PRES   REMARKS
HOUSTON BUSH   MOSUNNY   87  62  43 CALM      30.01F
HOUSTON HOBBY  MOSUNNY   87  64  46 VRB3      30.00F
GALVESTON      MOSUNNY   85  68  56 N9        30.02F
COLLEGE STAT   SUNNY     85  58  39 VRB3      30.03F
CONROE         SUNNY     87  56  34 N6        30.03F
HUNTSVILLE     SUNNY     85  55  35 VRB3      30.03F
LUFKIN         SUNNY     82  56  40 VRB3      30.03F
SHREVEPORT     MOSUNNY   86  55  34 VRB6      30.00F
MONROE         SUNNY     86  56  35 NW9       29.98F
NATCHEZ MS     SUNNY     84  59  42 W9        29.99F
BATON ROUGE    SUNNY     86  64  47 VRB7      29.98F
N.O. INTL ARPT MOSUNNY   89  64  43 W3        29.97F
SLIDELL        SUNNY     88  64  44 VRB6      29.95F
$$

MARINE REPORTS

STATION/POSITION TIME  SKY/WX   TEMP    WIND        PRES    VSBY
                                AIR SEA DIR/SP/G
                 (UTC)          (F)     (DEG/KT/KT) (MB)    (MI)
BUOY 30 S HIGH I 1950            81 86  350/  4/  6 1016.6F
WVE H/P(F/S)=  1/ 5

SEA RIM ST PARK  1900            83     340/  2/  3 1016.9F
PORT ARTHUR      1900               86  140/  5/  6 1016.6F
SABINE PASS N    1900            81 85  340/  4/  7 1018.0F
TEXAS POINT      NOT AVBL
CALCASIEU PASS   1900            81 83   20/  4/  6   N/A
LK CHARLES BEACH 1900            82 83              1016.7F
MARSH ISLAND     1900            84                   N/A
FRESH WATER LOCK 1900            82 86  230/  2/  4 1016.9F
AMERADA PASS     1900            83 84  220/  2/  5 1015.7F
$$




USA.gov is the U.S. government's official web portal to all federal, state and local government web resources and services.